Weather History for Luverne, MN

Change the Weather History Date:

Monday, December 31, 2012

  Actual Average (KFSD) Record (KFSD)
Temperature  
Mean Temperature 8 °F 17 °F  
Max Temperature 21 °F 26 °F 54 °F (1904)
Min Temperature -5 °F 7 °F -26 °F (1973)
Degree Days  
Heating Degree Days 57 48  
Month to date heating degree days 1419  
Since 1 July heating degree days 3133  
Cooling Degree Days 0 0  
Month to date cooling degree days 0  
Year to date cooling degree days 690  
Moisture  
Dew Point 6 °F    
Average Humidity 77    
Maximum Humidity 93    
Minimum Humidity 67    
Precipitation  
Precipitation 0.00 in 0.02 in 0.23 in (2010)
Month to date precipitation 0.69  
Year to date precipitation 26.38  
Snow  
Snow 0.00 in 0.20 in 4.20 in (1977)
Month to date snowfall 8.2  
Since 1 July snowfall 16.9  
Snow Depth -    
Sea Level Pressure  
Sea Level Pressure 30.18 in    
Wind  
Wind Speed 7 mph (North)    
Max Wind Speed 15 mph    
Max Gust Speed 17 mph    
Visibility 10 miles    
Events Snow    
T = Trace of Precipitation, MM = Missing Value Source: NWS Daily Summary

Daily Weather History Graph

Daily Weather History Graph

Search for Another Location

Airport:

Trip Planner

Search our weather history database for the weather conditions in past years. The results will help you decide how hot, cold, wet, or windy it might be!

Date:

Astronomy

Dec. 31, 2012 Rise Set
Actual Time 7:58 AM CST 4:58 PM CST
Civil Twilight 7:25 AM CST 5:30 PM CST
Nautical Twilight 6:49 AM CST 6:07 PM CST
Astronomical Twilight 6:14 AM CST 6:41 PM CST
Moon 8:36 PM CST (12/31) 9:34 AM CST (12/31)
Length of Visible Light 10h 05m
Length of Day
8h 59m
Waning Gibbous, 90% of the Moon is Illuminated
Dec 31
Waning Gibbous
Jan 4
Last Quarter
Jan 11
New
Jan 18
First Quarter
Jan 26
Full

Hourly Weather History & Observations

Time (CST) Temp. Windchill Dew Point Humidity Pressure Visibility Wind Dir Wind Speed Gust Speed Precip Events Conditions
12:15 AM 15.8 °F 3.4 °F 12.2 °F 86% 30.07 in 10.0 mi NNW 10.4 mph - N/A   Overcast
12:35 AM 14.0 °F 2.0 °F 10.4 °F 86% 30.08 in 10.0 mi NNW 9.2 mph - N/A   Mostly Cloudy
12:55 AM 14.0 °F 2.9 °F 10.4 °F 86% 30.09 in 10.0 mi NW 8.1 mph - N/A   Mostly Cloudy
1:15 AM 14.0 °F 3.9 °F 12.2 °F 93% 30.09 in 10.0 mi NW 6.9 mph - N/A   Overcast
1:56 AM 21.2 °F 8.9 °F 15.8 °F 80% 30.11 in 10.0 mi NNW 12.7 mph - N/A   Overcast
2:35 AM 21.2 °F 10.9 °F 17.6 °F 86% 30.13 in 10.0 mi NNW 9.2 mph 16.1 mph N/A   Overcast
2:56 AM 21.2 °F 8.3 °F 17.6 °F 86% 30.13 in 10.0 mi NNW 13.8 mph 17.3 mph N/A   Overcast
3:15 AM 21.2 °F 8.3 °F 17.6 °F 86% 30.13 in 10.0 mi NNW 13.8 mph - N/A   Overcast
3:35 AM 21.2 °F 7.8 °F 17.6 °F 86% 30.12 in 10.0 mi NNW 15.0 mph - N/A   Overcast
3:56 AM 21.2 °F 8.9 °F 15.8 °F 80% 30.12 in 10.0 mi NNW 12.7 mph - N/A   Overcast
4:15 AM 21.2 °F 9.5 °F 14.0 °F 74% 30.13 in 10.0 mi NNW 11.5 mph - N/A   Overcast
4:35 AM 19.4 °F 7.2 °F 14.0 °F 80% 30.15 in 10.0 mi NNW 11.5 mph - N/A   Overcast
4:56 AM 19.4 °F 7.9 °F 14.0 °F 80% 30.16 in 10.0 mi North 10.4 mph - N/A   Overcast
5:15 AM 19.4 °F 8.6 °F 12.2 °F 74% 30.14 in 10.0 mi North 9.2 mph - N/A   Overcast
5:36 AM 19.4 °F 10.4 °F 12.2 °F 74% 30.15 in 10.0 mi North 6.9 mph - N/A   Overcast
5:55 AM 17.6 °F 9.3 °F 10.4 °F 73% 30.15 in 10.0 mi NNW 5.8 mph - N/A   Scattered Clouds
6:15 AM 14.0 °F 8.2 °F 8.6 °F 79% 30.15 in 10.0 mi NW 3.5 mph - N/A   Mostly Cloudy
6:35 AM 14.0 °F 5.1 °F 8.6 °F 79% 30.15 in 10.0 mi NNW 5.8 mph - N/A   Overcast
6:55 AM 15.8 °F 7.2 °F 10.4 °F 79% 30.15 in 10.0 mi North 5.8 mph - N/A   Overcast
7:16 AM 17.6 °F 10.7 °F 12.2 °F 79% 30.15 in 10.0 mi NNW 4.6 mph - N/A Snow Light Snow
7:35 AM 17.6 °F 10.7 °F 12.2 °F 79% 30.15 in 10.0 mi NNW 4.6 mph - N/A   Overcast
7:55 AM 19.4 °F 12.8 °F 14.0 °F 80% 30.15 in 10.0 mi NNW 4.6 mph - N/A   Overcast
8:16 AM 19.4 °F 12.8 °F 14.0 °F 80% 30.15 in 10.0 mi North 4.6 mph - N/A   Overcast
8:35 AM 19.4 °F 14.3 °F 12.2 °F 74% 30.18 in 10.0 mi NNW 3.5 mph - N/A   Overcast
8:55 AM 19.4 °F 12.8 °F 12.2 °F 74% 30.18 in 10.0 mi NNW 4.6 mph - N/A   Overcast
9:15 AM 19.4 °F 9.5 °F 12.2 °F 74% 30.18 in 10.0 mi North 8.1 mph - N/A   Overcast
9:35 AM 19.4 °F 9.5 °F 12.2 °F 74% 30.18 in 10.0 mi North 8.1 mph - N/A   Mostly Cloudy
9:55 AM 17.6 °F 8.2 °F 10.4 °F 73% 30.18 in 10.0 mi NNE 6.9 mph - N/A   Clear
10:15 AM 17.6 °F 8.2 °F 10.4 °F 73% 30.19 in 10.0 mi NNE 6.9 mph - N/A   Clear
10:35 AM 17.6 °F 8.2 °F 10.4 °F 73% 30.19 in 10.0 mi NNE 6.9 mph - N/A   Clear
10:55 AM 17.6 °F 5.7 °F 10.4 °F 73% 30.19 in 10.0 mi NE 10.4 mph - N/A   Clear
11:15 AM 17.6 °F 8.2 °F 10.4 °F 73% 30.19 in 10.0 mi NNE 6.9 mph - N/A   Clear
11:35 AM 15.8 °F 4.2 °F 8.6 °F 73% 30.20 in 10.0 mi NE 9.2 mph - N/A   Clear
11:55 AM 15.8 °F 6.1 °F 8.6 °F 73% 30.20 in 10.0 mi ENE 6.9 mph - N/A   Clear
12:16 PM 15.8 °F 8.6 °F 8.6 °F 73% 30.19 in 10.0 mi NE 4.6 mph - N/A   Scattered Clouds
12:35 PM 15.8 °F 8.6 °F 8.6 °F 73% 30.19 in 10.0 mi NE 4.6 mph - N/A   Scattered Clouds
12:55 PM 14.0 °F 5.1 °F 8.6 °F 79% 30.19 in 10.0 mi East 5.8 mph - N/A   Scattered Clouds
1:16 PM 14.0 °F 5.1 °F 6.8 °F 73% 30.18 in 10.0 mi ENE 5.8 mph - N/A   Clear
1:35 PM 14.0 °F 8.2 °F 6.8 °F 73% 30.18 in 10.0 mi NE 3.5 mph - N/A   Clear
1:55 PM 14.0 °F 6.5 °F 6.8 °F 73% 30.18 in 10.0 mi ENE 4.6 mph - N/A   Clear
2:16 PM 14.0 °F 3.9 °F 6.8 °F 73% 30.19 in 10.0 mi East 6.9 mph - N/A   Clear
2:35 PM 14.0 °F 5.1 °F 6.8 °F 73% 30.18 in 10.0 mi ENE 5.8 mph - N/A   Clear
2:55 PM 14.0 °F 2.0 °F 5.0 °F 67% 30.19 in 10.0 mi NE 9.2 mph - N/A   Clear
3:16 PM 12.2 °F 1.7 °F 5.0 °F 73% 30.19 in 10.0 mi North 6.9 mph - N/A   Clear
3:35 PM 12.2 °F 1.7 °F 5.0 °F 73% 30.18 in 10.0 mi NNE 6.9 mph - N/A   Clear
3:55 PM 12.2 °F 2.9 °F 3.2 °F 67% 30.18 in 10.0 mi NNE 5.8 mph - N/A   Clear
4:16 PM 10.4 °F 4.0 °F 3.2 °F 73% 30.19 in 10.0 mi NNE 3.5 mph - N/A   Clear
4:35 PM 8.6 °F 0.1 °F 1.4 °F 73% 30.19 in 10.0 mi NNE 4.6 mph - N/A   Clear
4:55 PM 8.6 °F 2.0 °F 1.4 °F 73% 30.19 in 10.0 mi NNE 3.5 mph - N/A   Clear
5:15 PM 6.8 °F -0.1 °F 1.4 °F 79% 30.19 in 10.0 mi NNE 3.5 mph - N/A   Clear
5:35 PM 5.0 °F -2.1 °F -0.4 °F 78% 30.20 in 10.0 mi North 3.5 mph - N/A   Clear
5:56 PM 5.0 °F - -2.2 °F 72% 30.21 in 10.0 mi Calm Calm - N/A   Clear
6:15 PM 3.2 °F -4.2 °F -4.0 °F 72% 30.21 in 10.0 mi North 3.5 mph - N/A   Clear
6:35 PM 3.2 °F - -2.2 °F 78% 30.21 in 10.0 mi Calm Calm - N/A   Clear
6:56 PM 1.4 °F -6.2 °F -4.0 °F 78% 30.21 in 10.0 mi North 3.5 mph - N/A   Clear
7:15 PM -2.2 °F - -7.6 °F 78% 30.22 in 10.0 mi Calm Calm - N/A   Clear
7:35 PM -4.0 °F - -7.6 °F 85% 30.22 in 10.0 mi Calm Calm - N/A   Clear
7:55 PM -0.4 °F - -4.0 °F 85% 30.22 in 10.0 mi Calm Calm - N/A   Clear
8:36 PM -4.0 °F - -9.4 °F 78% 30.22 in 10.0 mi Calm Calm - N/A   Scattered Clouds
8:55 PM -5.8 °F - -11.2 °F 77% 30.22 in 10.0 mi Calm Calm - N/A   Scattered Clouds
9:15 PM -4.0 °F - -7.6 °F 85% 30.22 in 10.0 mi Calm Calm - N/A   Mostly Cloudy
9:36 PM -2.2 °F -10.4 °F -7.6 °F 78% 30.21 in 10.0 mi NE 3.5 mph - N/A   Overcast
9:55 PM -0.4 °F - -4.0 °F 85% 30.21 in 10.0 mi Calm Calm - N/A   Overcast
10:15 PM 1.4 °F - -4.0 °F 78% 30.21 in 10.0 mi Calm Calm - N/A   Overcast
10:36 PM 3.2 °F - -2.2 °F 78% 30.22 in 10.0 mi Calm Calm - N/A   Overcast
10:55 PM 3.2 °F -6.2 °F -2.2 °F 78% 30.23 in 10.0 mi ENE 4.6 mph - N/A   Overcast
11:15 PM 3.2 °F -4.2 °F -2.2 °F 78% 30.24 in 10.0 mi South 3.5 mph - N/A   Overcast
11:35 PM 3.2 °F -4.2 °F -4.0 °F 72% 30.24 in 10.0 mi South 3.5 mph - N/A   Overcast
11:55 PM 3.2 °F -4.2 °F -2.2 °F 78% 30.24 in 10.0 mi South 3.5 mph - N/A   Overcast